| time (UTC) | temp F | wind direction | speed MPH | gust MPH | rain 1hr in | rain 24hr in | rain mn in | humidity % | barometer mb |
| 20260904174223 | 79 | 128 | 0.0 | 7.0 | 0.00 | 0.07 | 0.00 | 69 | 1016.4 |
| 20260904173716 | 79 | 240 | 1.0 | 4.0 | 0.00 | 0.07 | 0.00 | 68 | 1016.5 |
| 20260904173211 | 79 | 308 | 1.0 | 7.0 | 0.00 | 0.07 | 0.00 | 67 | 1016.7 |
| 20260904172910 | 79 | 171 | 1.0 | 8.0 | 0.00 | 0.07 | 0.00 | 68 | 1016.7 |
| 20260904172903 | 79 | 15 | 1.0 | 7.0 | 0.00 | 0.07 | 0.00 | 67 | 1016.7 |
| 20260904171653 | 79 | 72 | 1.0 | 8.0 | 0.00 | 0.07 | 0.00 | 67 | 1016.8 |
| 20260904171148 | 78 | 278 | 1.0 | 8.0 | 0.00 | 0.07 | 0.00 | 67 | 1016.8 |
| 20260904170905 | 78 | 96 | 1.0 | 10.0 | 0.00 | 0.07 | 0.00 | 67 | 1016.6 |
| 20260904170134 | 79 | 131 | 1.0 | 10.0 | 0.00 | 0.07 | 0.00 | 66 | 1016.7 |
| 20260904165628 | 79 | 137 | 1.0 | 10.0 | 0.00 | 0.07 | 0.00 | 67 | 1016.7 |
| 20260904165352 | 79 | 252 | 0.0 | 7.0 | 0.00 | 0.07 | 0.00 | 67 | 1016.7 |
| 20260904164615 | 79 | 142 | 1.0 | 7.0 | 0.00 | 0.07 | 0.00 | 68 | 1016.8 |
| 20260904164331 | 78 | 104 | 2.0 | 9.0 | 0.00 | 0.07 | 0.00 | 67 | 1016.7 |
| 20260904163602 | 79 | 74 | 2.0 | 9.0 | 0.00 | 0.07 | 0.00 | 66 | 1016.7 |
| 20260904163057 | 79 | 32 | 1.0 | 8.0 | 0.00 | 0.07 | 0.00 | 67 | 1016.6 |
| 20260904162550 | 79 | 184 | 0.0 | 7.0 | 0.00 | 0.07 | 0.00 | 67 | 1016.6 |
| 20260904162057 | 78 | 57 | 1.0 | 6.0 | 0.00 | 0.07 | 0.00 | 68 | 1016.6 |
| 20260904161538 | 78 | 244 | 1.0 | 6.0 | 0.00 | 0.07 | 0.00 | 65 | 1016.7 |
| 20260904161039 | 78 | 254 | 0.0 | 5.0 | 0.00 | 0.07 | 0.00 | 67 | 1016.6 |
| 20260904160526 | 78 | 286 | 1.0 | 6.0 | 0.00 | 0.07 | 0.00 | 69 | 1016.6 |
| 20260904160503 | 77 | 288 | 1.0 | 6.0 | 0.00 | 0.07 | 0.00 | 68 | 1016.6 |
| 20260904155515 | 77 | 265 | 0.0 | 5.0 | 0.00 | 0.07 | 0.00 | 69 | 1016.7 |
| 20260904155209 | 77 | 306 | 0.0 | 0.0 | 0.00 | 0.07 | 0.00 | 70 | 1016.6 |
| 20260904155200 | 77 | 136 | 0.0 | 5.0 | 0.00 | 0.07 | 0.00 | 71 | 1016.6 |
| 20260904153957 | 76 | 215 | 0.0 | 1.0 | 0.00 | 0.07 | 0.00 | 73 | 1016.6 |
| 20260904153937 | 76 | 217 | 0.0 | 4.0 | 0.00 | 0.07 | 0.00 | 71 | 1016.6 |
| 20260904153430 | 76 | 159 | 0.0 | 5.0 | 0.00 | 0.07 | 0.00 | 72 | 1016.7 |
| 20260904152701 | 76 | 190 | 0.0 | 5.0 | 0.00 | 0.07 | 0.00 | 72 | 1016.7 |
| 20260904151932 | 75 | 121 | 0.0 | 3.0 | 0.00 | 0.07 | 0.00 | 72 | 1016.8 |
| 20260904151433 | 75 | 142 | 1.0 | 7.0 | 0.00 | 0.07 | 0.00 | 73 | 1016.8 |
| 20260904151147 | 75 | 88 | 1.0 | 7.0 | 0.00 | 0.07 | 0.00 | 72 | 1016.8 |
| 20260904150414 | 76 | 147 | 1.0 | 8.0 | 0.00 | 0.07 | 0.00 | 72 | 1016.8 |
| 20260904150134 | 76 | 94 | 1.0 | 8.0 | 0.00 | 0.07 | 0.00 | 72 | 1016.8 |
| 20260904145623 | 75 | 261 | 0.0 | 4.0 | 0.00 | 0.07 | 0.00 | 74 | 1016.9 |
| 20260904144856 | 75 | 104 | 0.0 | 4.0 | 0.00 | 0.07 | 0.00 | 74 | 1016.8 |
| 20260904144350 | 75 | 223 | 0.0 | 5.0 | 0.00 | 0.07 | 0.00 | 75 | 1016.8 |
| 20260904143844 | 75 | 199 | 1.0 | 5.0 | 0.00 | 0.07 | 0.00 | 74 | 1016.8 |
| 20260904143339 | 74 | 90 | 0.0 | 4.0 | 0.00 | 0.07 | 0.00 | 74 | 1016.7 |
| 20260904142833 | 74 | 172 | 0.0 | 2.0 | 0.00 | 0.07 | 0.00 | 74 | 1016.6 |
| 20260904142326 | 74 | 317 | 0.0 | 4.0 | 0.00 | 0.07 | 0.00 | 75 | 1016.7 |
| 20260904141833 | 74 | 274 | 0.0 | 4.0 | 0.00 | 0.07 | 0.00 | 74 | 1016.6 |
| 20260904141538 | 74 | 306 | 0.0 | 1.0 | 0.00 | 0.07 | 0.00 | 77 | 1016.6 |
| 20260904140808 | 74 | 304 | 0.0 | 3.0 | 0.00 | 0.07 | 0.00 | 75 | 1016.7 |
| 20260904140303 | 74 | 77 | 0.0 | 3.0 | 0.00 | 0.07 | 0.00 | 77 | 1016.8 |
| 20260904135756 | 73 | 267 | 0.0 | 4.0 | 0.00 | 0.07 | 0.00 | 79 | 1016.9 |
| 20260904135251 | 73 | 251 | 0.0 | 4.0 | 0.00 | 0.07 | 0.00 | 78 | 1017.0 |
| 20260904134744 | 72 | 282 | 0.0 | 5.0 | 0.00 | 0.07 | 0.00 | 79 | 1016.9 |
| 20260904134239 | 72 | 282 | 0.0 | 5.0 | 0.00 | 0.07 | 0.00 | 79 | 1016.7 |
| 20260904133733 | 72 | 151 | 0.0 | 3.0 | 0.00 | 0.07 | 0.00 | 78 | 1016.7 |
| 20260904133232 | 72 | 153 | 0.0 | 4.0 | 0.00 | 0.07 | 0.00 | 80 | 1016.6 |
| 20260904132732 | 71 | 90 | 0.0 | 6.0 | 0.00 | 0.07 | 0.00 | 80 | 1016.7 |
| 20260904132233 | 71 | 180 | 1.0 | 6.0 | 0.00 | 0.07 | 0.00 | 80 | 1016.7 |
| 20260904131951 | 71 | 171 | 0.0 | 4.0 | 0.00 | 0.07 | 0.00 | 82 | 1016.7 |
| 20260904131234 | 71 | 135 | 1.0 | 7.0 | 0.00 | 0.07 | 0.00 | 82 | 1016.8 |
| 20260904130733 | 71 | 159 | 0.0 | 7.0 | 0.00 | 0.07 | 0.00 | 82 | 1016.8 |
| 20260904130233 | 71 | 223 | 0.0 | 2.0 | 0.00 | 0.07 | 0.00 | 82 | 1016.9 |
| 20260904125734 | 71 | 206 | 0.0 | 1.0 | 0.00 | 0.07 | 0.00 | 84 | 1017.0 |
| 20260904125459 | 70 | 206 | 0.0 | 7.0 | 0.00 | 0.09 | 0.00 | 84 | 1017.1 |
| 20260904124952 | 70 | 169 | 1.0 | 7.0 | 0.00 | 0.11 | 0.00 | 84 | 1017.1 |
| 20260904124233 | 70 | 143 | 0.0 | 4.0 | 0.00 | 0.13 | 0.00 | 84 | 1016.9 |
| 20260904123732 | 70 | 147 | 0.0 | 3.0 | 0.00 | 0.16 | 0.00 | 85 | 1017.0 |
| 20260904123455 | 70 | 140 | 1.0 | 5.0 | 0.00 | 0.19 | 0.00 | 86 | 1017.1 |
| 20260904122745 | 70 | 144 | 0.0 | 5.0 | 0.00 | 0.21 | 0.00 | 86 | 1017.1 |
| 20260904122507 | 69 | 92 | 0.0 | 3.0 | 0.00 | 0.22 | 0.00 | 87 | 1017.1 |
| 20260904121733 | 69 | 87 | 0.0 | 0.0 | 0.00 | 0.23 | 0.00 | 87 | 1017.0 |
| 20260904121458 | 69 | 87 | 0.0 | 0.0 | 0.00 | 0.27 | 0.00 | 87 | 1017.0 |
| 20260904120734 | 69 | 87 | 0.0 | 0.0 | 0.00 | 0.29 | 0.00 | 87 | 1016.9 |
| 20260904120456 | 69 | 87 | 0.0 | 0.0 | 0.00 | 0.29 | 0.00 | 88 | 1017.0 |
| 20260904115954 | 69 | 87 | 0.0 | 0.0 | 0.00 | 0.29 | 0.00 | 88 | 1017.0 |
| 20260904115233 | 68 | 87 | 0.0 | 2.0 | 0.00 | 0.29 | 0.00 | 88 | 1016.8 |
| 20260904114732 | 68 | 87 | 0.0 | 2.0 | 0.00 | 0.29 | 0.00 | 88 | 1016.9 |
| 20260904114232 | 68 | 87 | 0.0 | 0.0 | 0.00 | 0.29 | 0.00 | 88 | 1017.0 |
| 20260904113732 | 68 | 87 | 0.0 | 0.0 | 0.00 | 0.29 | 0.00 | 88 | 1017.2 |
| 20260904113232 | 68 | 87 | 0.0 | 0.0 | 0.00 | 0.29 | 0.00 | 88 | 1017.1 |
| 20260904112730 | 68 | 87 | 0.0 | 0.0 | 0.00 | 0.29 | 0.00 | 89 | 1017.1 |
| 20260904112230 | 68 | 87 | 0.0 | 0.0 | 0.00 | 0.29 | 0.00 | 88 | 1016.9 |
| 20260904111729 | 68 | 87 | 0.0 | 0.0 | 0.00 | 0.29 | 0.00 | 88 | 1016.9 |
| 20260904111455 | 68 | 87 | 0.0 | 0.0 | 0.00 | 0.29 | 0.00 | 88 | 1016.9 |
| 20260904110727 | 68 | 87 | 0.0 | 2.0 | 0.00 | 0.29 | 0.00 | 88 | 1017.0 |
| 20260904110448 | 68 | 87 | 0.0 | 2.0 | 0.00 | 0.29 | 0.00 | 88 | 1016.9 |
| 20260904105724 | 68 | 87 | 0.0 | 0.0 | 0.00 | 0.29 | 0.00 | 88 | 1016.8 |
| 20260904105224 | 68 | 87 | 0.0 | 0.0 | 0.00 | 0.29 | 0.00 | 88 | 1017.0 |
| 20260904104718 | 68 | 87 | 0.0 | 0.0 | 0.00 | 0.29 | 0.00 | 88 | 1017.0 |
| 20260904104211 | 68 | 87 | 0.0 | 0.0 | 0.00 | 0.29 | 0.00 | 88 | 1016.9 |
| 20260904103923 | 68 | 87 | 0.0 | 0.0 | 0.00 | 0.29 | 0.00 | 89 | 1016.9 |
| 20260904103159 | 68 | 87 | 0.0 | 2.0 | 0.00 | 0.29 | 0.00 | 89 | 1016.9 |
| 20260904102653 | 68 | 87 | 0.0 | 2.0 | 0.00 | 0.29 | 0.00 | 89 | 1016.8 |
| 20260904102147 | 68 | 87 | 0.0 | 0.0 | 0.00 | 0.29 | 0.00 | 89 | 1016.8 |
| 20260904101642 | 68 | 87 | 0.0 | 3.0 | 0.00 | 0.29 | 0.00 | 89 | 1016.8 |
| 20260904101135 | 68 | 87 | 0.0 | 3.0 | 0.00 | 0.29 | 0.00 | 89 | 1016.7 |
| 20260904100631 | 68 | 87 | 0.0 | 0.0 | 0.00 | 0.29 | 0.00 | 89 | 1016.7 |
| 20260904100124 | 68 | 87 | 0.0 | 0.0 | 0.00 | 0.29 | 0.00 | 89 | 1016.7 |
| 20260904095840 | 68 | 87 | 0.0 | 0.0 | 0.00 | 0.29 | 0.00 | 90 | 1016.6 |
| 20260904095111 | 68 | 87 | 0.0 | 0.0 | 0.00 | 0.29 | 0.00 | 90 | 1016.5 |
| 20260904094605 | 68 | 87 | 0.0 | 0.0 | 0.00 | 0.29 | 0.00 | 90 | 1016.4 |
| 20260904094320 | 68 | 87 | 0.0 | 0.0 | 0.00 | 0.29 | 0.00 | 90 | 1016.5 |
| 20260904093553 | 68 | 87 | 0.0 | 0.0 | 0.00 | 0.29 | 0.00 | 90 | 1016.5 |
| 20260904093048 | 68 | 87 | 0.0 | 0.0 | 0.00 | 0.29 | 0.00 | 90 | 1016.6 |
| 20260904092541 | 68 | 87 | 0.0 | 0.0 | 0.00 | 0.29 | 0.00 | 90 | 1016.5 |
| 20260904092307 | 68 | 87 | 0.0 | 0.0 | 0.00 | 0.29 | 0.00 | 90 | 1016.5 |
| 20260904091529 | 67 | 87 | 0.0 | 0.0 | 0.00 | 0.29 | 0.00 | 90 | 1016.6 |
| 20260904091243 | 68 | 87 | 0.0 | 0.0 | 0.00 | 0.29 | 0.00 | 90 | 1016.5 |
| 20260904090518 | 67 | 87 | 0.0 | 0.0 | 0.00 | 0.29 | 0.00 | 90 | 1016.4 |
| 20260904090011 | 67 | 87 | 0.0 | 0.0 | 0.00 | 0.29 | 0.00 | 90 | 1016.5 |
| 20260904085506 | 68 | 87 | 0.0 | 0.0 | 0.00 | 0.30 | 0.00 | 90 | 1016.5 |
| 20260904084959 | 67 | 87 | 0.0 | 0.0 | 0.00 | 0.31 | 0.00 | 90 | 1016.5 |
| 20260904084453 | 67 | 87 | 0.0 | 1.0 | 0.00 | 0.34 | 0.00 | 90 | 1016.5 |
| 20260904083948 | 67 | 87 | 0.0 | 1.0 | 0.00 | 0.36 | 0.00 | 90 | 1016.5 |
| 20260904083442 | 67 | 87 | 0.0 | 0.0 | 0.00 | 0.37 | 0.00 | 90 | 1016.5 |
| 20260904082936 | 67 | 87 | 0.0 | 3.0 | 0.00 | 0.37 | 0.00 | 90 | 1016.4 |
| 20260904082429 | 67 | 87 | 0.0 | 3.0 | 0.00 | 0.42 | 0.00 | 90 | 1016.4 |
| 20260904081924 | 67 | 87 | 0.0 | 1.0 | 0.00 | 0.51 | 0.00 | 90 | 1016.4 |
| 20260904081419 | 67 | 87 | 0.0 | 0.0 | 0.00 | 0.58 | 0.00 | 90 | 1016.3 |
| 20260904080911 | 67 | 87 | 0.0 | 2.0 | 0.00 | 0.58 | 0.00 | 90 | 1016.2 |
| 20260904080405 | 67 | 87 | 0.0 | 2.0 | 0.00 | 0.58 | 0.00 | 90 | 1016.3 |
| 20260904080121 | 67 | 87 | 0.0 | 3.0 | 0.00 | 0.58 | 0.00 | 90 | 1016.2 |
| 20260904075354 | 67 | 84 | 0.0 | 3.0 | 0.00 | 0.58 | 0.00 | 90 | 1016.1 |
| 20260904074849 | 67 | 83 | 0.0 | 0.0 | 0.00 | 0.59 | 0.00 | 90 | 1016.1 |
| 20260904074341 | 67 | 83 | 0.0 | 0.0 | 0.00 | 0.59 | 0.00 | 90 | 1016.0 |
| 20260904073836 | 67 | 83 | 0.0 | 0.0 | 0.00 | 0.60 | 0.00 | 90 | 1016.1 |
| 20260904073329 | 67 | 83 | 0.0 | 0.0 | 0.00 | 0.63 | 0.00 | 90 | 1016.1 |
| 20260904073042 | 67 | 83 | 0.0 | 2.0 | 0.00 | 0.69 | 0.00 | 90 | 1016.0 |
| 20260904072318 | 67 | 83 | 0.0 | 2.0 | 0.00 | 0.81 | 0.00 | 90 | 1015.9 |
| 20260904071814 | 67 | 83 | 0.0 | 1.0 | 0.00 | 0.91 | 0.00 | 90 | 1015.8 |
| 20260904071534 | 67 | 83 | 0.0 | 1.0 | 0.00 | 0.92 | 0.00 | 90 | 1015.7 |
| 20260904070815 | 67 | 82 | 0.0 | 0.0 | 0.00 | 1.03 | 0.00 | 90 | 1015.8 |
| 20260904070552 | 67 | 82 | 0.0 | 0.0 | 0.00 | 1.04 | 0.00 | 90 | 1015.7 |
| 20260904065809 | 67 | 82 | 0.0 | 0.0 | 0.00 | 1.04 | 0.00 | 90 | 1015.7 |
| 20260904065307 | 67 | 82 | 0.0 | 0.0 | 0.00 | 1.04 | 0.00 | 90 | 1015.7 |
| 20260904064805 | 67 | 82 | 0.0 | 0.0 | 0.00 | 1.04 | 0.00 | 90 | 1015.8 |
| 20260904064526 | 67 | 82 | 0.0 | 0.0 | 0.00 | 1.04 | 0.00 | 90 | 1015.7 |
| 20260904063803 | 67 | 82 | 0.0 | 0.0 | 0.00 | 1.04 | 0.00 | 90 | 1015.5 |
| 20260904063304 | 67 | 82 | 0.0 | 0.0 | 0.00 | 1.04 | 0.00 | 90 | 1015.7 |
| 20260904062801 | 67 | 82 | 0.0 | 0.0 | 0.00 | 1.04 | 0.00 | 90 | 1015.7 |
| 20260904062522 | 67 | 82 | 0.0 | 0.0 | 0.00 | 1.04 | 0.00 | 90 | 1015.7 |
| 20260904061804 | 67 | 82 | 0.0 | 0.0 | 0.00 | 1.05 | 0.00 | 90 | 1015.7 |
| 20260904061259 | 67 | 82 | 0.0 | 0.0 | 0.00 | 1.05 | 0.00 | 90 | 1015.8 |
| 20260904060800 | 67 | 82 | 0.0 | 0.0 | 0.00 | 1.11 | 0.00 | 90 | 1015.7 |
| 20260904060259 | 67 | 82 | 0.0 | 0.0 | 0.00 | 1.26 | 0.00 | 90 | 1015.7 |
| 20260904055758 | 67 | 82 | 0.0 | 0.0 | 0.00 | 1.45 | 0.00 | 90 | 1015.4 |
| 20260904055256 | 67 | 82 | 0.0 | 0.0 | 0.00 | 1.51 | 0.00 | 90 | 1015.4 |
| 20260904054755 | 67 | 82 | 0.0 | 0.0 | 0.00 | 1.56 | 0.00 | 90 | 1015.5 |
| 20260904054251 | 67 | 82 | 0.0 | 0.0 | 0.00 | 1.56 | 0.00 | 90 | 1015.5 |
| 20260904053751 | 67 | 82 | 0.0 | 0.0 | 0.00 | 1.56 | 0.00 | 90 | 1015.5 |
| 20260904053249 | 67 | 82 | 0.0 | 0.0 | 0.00 | 1.57 | 0.00 | 90 | 1015.7 |
| 20260904052749 | 68 | 82 | 0.0 | 0.0 | 0.00 | 1.68 | 0.00 | 90 | 1015.7 |
| 20260904052250 | 68 | 82 | 0.0 | 0.0 | 0.00 | 1.70 | 0.00 | 90 | 1015.8 |
| 20260904051750 | 68 | 82 | 0.0 | 0.0 | 0.00 | 1.79 | 0.00 | 90 | 1015.8 |
| 20260904051249 | 68 | 82 | 0.0 | 0.0 | 0.00 | 1.98 | 0.00 | 90 | 1015.8 |
| 20260904051013 | 68 | 82 | 0.0 | 0.0 | 0.00 | 2.30 | 0.00 | 90 | 1015.8 |
| 20260904050247 | 68 | 82 | 0.0 | 0.0 | 0.00 | 2.71 | 0.00 | 90 | 1015.8 |
| 20260904045747 | 68 | 82 | 0.0 | 0.0 | 0.00 | 2.71 | 0.00 | 90 | 1015.8 |
| 20260904045247 | 68 | 82 | 0.0 | 0.0 | 0.00 | 2.71 | 0.00 | 89 | 1015.8 |
| 20260904045016 | 68 | 82 | 0.0 | 0.0 | 0.00 | 2.71 | 0.00 | 89 | 1015.7 |
| 20260904044243 | 68 | 82 | 0.0 | 0.0 | 0.00 | 2.71 | 0.00 | 89 | 1015.8 |
| 20260904043743 | 68 | 82 | 0.0 | 0.0 | 0.00 | 2.71 | 0.00 | 89 | 1015.8 |
| 20260904043246 | 68 | 82 | 0.0 | 0.0 | 0.00 | 2.71 | 0.00 | 90 | 1015.7 |
| 20260904042744 | 68 | 82 | 0.0 | 0.0 | 0.00 | 2.71 | 0.00 | 89 | 1015.5 |
| 20260904042243 | 68 | 82 | 0.0 | 0.0 | 0.00 | 2.71 | 0.00 | 89 | 1015.3 |
| 20260904041743 | 68 | 82 | 0.0 | 0.0 | 0.00 | 2.71 | 0.00 | 89 | 1015.1 |
| 20260904041243 | 68 | 82 | 0.0 | 0.0 | 0.00 | 2.71 | 0.00 | 89 | 1015.0 |
| 20260904041223 | 68 | 82 | 0.0 | 0.0 | 0.00 | 2.71 | 0.00 | 89 | 1015.0 |
| 20260904040244 | 68 | 82 | 0.0 | 0.0 | 0.00 | 2.71 | 0.00 | 89 | 1014.9 |
| 20260904035739 | 68 | 82 | 0.0 | 0.0 | 0.00 | 2.71 | 2.71 | 88 | 1015.0 |
| 20260904035230 | 68 | 82 | 0.0 | 0.0 | 0.00 | 2.71 | 2.71 | 88 | 1015.1 |
| 20260904034946 | 68 | 82 | 0.0 | 0.0 | 0.00 | 2.71 | 2.71 | 88 | 1014.8 |
| 20260904034219 | 69 | 82 | 0.0 | 0.0 | 0.01 | 2.71 | 2.71 | 88 | 1014.6 |
| 20260904033713 | 69 | 82 | 0.0 | 0.0 | 0.01 | 2.71 | 2.71 | 87 | 1014.8 |
| 20260904033206 | 69 | 82 | 0.0 | 0.0 | 0.01 | 2.71 | 2.71 | 88 | 1014.8 |
| 20260904032701 | 69 | 82 | 0.0 | 2.0 | 0.02 | 2.71 | 2.71 | 88 | 1014.7 |
| 20260904032155 | 69 | 81 | 1.0 | 7.0 | 0.02 | 2.71 | 2.71 | 88 | 1014.8 |
| 20260904031649 | 69 | 88 | 1.0 | 7.0 | 0.03 | 2.71 | 2.71 | 88 | 1014.9 |
| 20260904031142 | 69 | 57 | 0.0 | 3.0 | 0.03 | 2.71 | 2.71 | 88 | 1014.9 |
| 20260904030636 | 69 | 68 | 0.0 | 3.0 | 0.03 | 2.71 | 2.71 | 88 | 1015.3 |
| 20260904030131 | 69 | 68 | 1.0 | 4.0 | 0.04 | 2.71 | 2.71 | 87 | 1015.4 |
| 20260904025625 | 69 | 128 | 0.0 | 4.0 | 0.04 | 2.71 | 2.71 | 87 | 1015.7 |
| 20260904025118 | 69 | 77 | 1.0 | 6.0 | 0.04 | 2.71 | 2.71 | 87 | 1015.8 |
| 20260904024612 | 69 | 76 | 1.0 | 8.0 | 0.04 | 2.71 | 2.71 | 87 | 1015.8 |
| 20260904024106 | 69 | 78 | 2.0 | 8.0 | 0.03 | 2.70 | 2.70 | 87 | 1015.9 |
| 20260904023600 | 70 | 87 | 2.0 | 10.0 | 0.04 | 2.70 | 2.70 | 87 | 1016.1 |
| 20260904023055 | 70 | 89 | 3.0 | 10.0 | 0.04 | 2.70 | 2.70 | 86 | 1016.4 |
| 20260904022549 | 70 | 67 | 3.0 | 10.0 | 0.03 | 2.69 | 2.69 | 86 | 1016.6 |
| 20260904022300 | 70 | 89 | 3.0 | 11.0 | 0.03 | 2.69 | 2.69 | 86 | 1017.0 |
| 20260904021537 | 71 | 84 | 3.0 | 10.0 | 0.02 | 2.68 | 2.68 | 86 | 1017.3 |
| 20260904021030 | 71 | 60 | 2.0 | 11.0 | 0.02 | 2.68 | 2.68 | 85 | 1017.3 |
| 20260904020524 | 71 | 77 | 1.0 | 11.0 | 0.01 | 2.67 | 2.67 | 85 | 1017.4 |
| 20260904020018 | 72 | 107 | 1.0 | 7.0 | 0.01 | 2.67 | 2.67 | 85 | 1017.5 |
| 20260904015512 | 72 | 150 | 1.0 | 7.0 | 0.01 | 2.67 | 2.67 | 84 | 1017.5 |
| 20260904015006 | 72 | 156 | 1.0 | 10.0 | 0.01 | 2.67 | 2.67 | 84 | 1017.5 |
| 20260904014501 | 73 | 298 | 2.0 | 10.0 | 0.01 | 2.67 | 2.67 | 84 | 1017.4 |
| 20260904014217 | 73 | 105 | 3.0 | 10.0 | 0.01 | 2.67 | 2.67 | 85 | 1017.6 |
| 20260904013448 | 74 | 130 | 3.0 | 10.0 | 0.00 | 2.66 | 2.66 | 85 | 1017.6 |
| 20260904013210 | 74 | 155 | 2.0 | 12.0 | 0.00 | 2.66 | 2.66 | 86 | 1017.5 |
| 20260904012439 | 74 | 188 | 2.0 | 12.0 | 0.00 | 2.66 | 2.66 | 87 | 1017.4 |
| 20260904012156 | 74 | 68 | 1.0 | 7.0 | 0.00 | 2.66 | 2.66 | 88 | 1017.3 |
| 20260904011426 | 74 | 76 | 0.0 | 3.0 | 0.00 | 2.66 | 2.66 | 89 | 1017.2 |
| 20260904010918 | 74 | 76 | 0.0 | 0.0 | 0.00 | 2.66 | 2.66 | 89 | 1017.1 |
| 20260904010413 | 74 | 76 | 0.0 | 0.0 | 0.00 | 2.66 | 2.66 | 88 | 1016.9 |
| 20260904010130 | 74 | 76 | 0.0 | 0.0 | 0.00 | 2.66 | 2.66 | 88 | 1016.4 |
| 20260904005402 | 74 | 76 | 0.0 | 0.0 | 0.00 | 2.66 | 2.66 | 88 | 1016.1 |
| 20260904005113 | 74 | 76 | 0.0 | 0.0 | 0.00 | 2.66 | 2.66 | 88 | 1016.1 |
| 20260904004611 | 74 | 76 | 0.0 | 0.0 | 0.00 | 2.66 | 2.66 | 88 | 1016.0 |
| 20260904003849 | 75 | 76 | 0.0 | 0.0 | 0.00 | 2.66 | 2.66 | 87 | 1016.2 |
| 20260904003606 | 75 | 76 | 0.0 | 0.0 | 0.01 | 2.66 | 2.66 | 87 | 1016.1 |
| 20260904003109 | 75 | 76 | 0.0 | 0.0 | 0.01 | 2.66 | 2.66 | 87 | 1016.2 |
| 20260904002349 | 75 | 76 | 0.0 | 0.0 | 0.01 | 2.66 | 2.66 | 87 | 1016.2 |
| 20260904001849 | 75 | 76 | 0.0 | 0.0 | 0.01 | 2.66 | 2.66 | 87 | 1016.1 |
| 20260904001347 | 75 | 76 | 0.0 | 1.0 | 0.01 | 2.66 | 2.66 | 86 | 1016.1 |
| 20260904000844 | 75 | 76 | 0.0 | 3.0 | 0.02 | 2.66 | 2.66 | 87 | 1016.0 |
| 20260904000602 | 75 | 76 | 1.0 | 8.0 | 0.02 | 2.66 | 2.66 | 87 | 1016.2 |
| 20260903235847 | 75 | 76 | 1.0 | 8.0 | 0.02 | 2.66 | 2.66 | 87 | 1016.4 |
| 20260903235344 | 75 | 84 | 0.0 | 0.0 | 0.02 | 2.66 | 2.66 | 87 | 1016.5 |
| 20260903234845 | 76 | 85 | 0.0 | 0.0 | 0.02 | 2.66 | 2.66 | 86 | 1016.6 |
| 20260903234345 | 76 | 84 | 0.0 | 0.0 | 0.02 | 2.66 | 2.66 | 86 | 1016.6 |
| 20260903233841 | 76 | 84 | 0.0 | 0.0 | 0.02 | 2.66 | 2.66 | 86 | 1016.5 |
| 20260903233342 | 76 | 84 | 0.0 | 0.0 | 0.01 | 2.65 | 2.65 | 85 | 1016.0 |
| 20260903232838 | 76 | 84 | 0.0 | 0.0 | 0.01 | 2.65 | 2.65 | 85 | 1016.0 |
| 20260903232340 | 77 | 85 | 0.0 | 0.0 | 0.01 | 2.65 | 2.65 | 84 | 1016.1 |
| 20260903231838 | 77 | 84 | 0.0 | 0.0 | 0.01 | 2.65 | 2.65 | 83 | 1016.1 |
| 20260903231351 | 77 | 84 | 0.0 | 0.0 | 0.01 | 2.65 | 2.65 | 82 | 1016.0 |
| 20260903230839 | 78 | 85 | 0.0 | 0.0 | 0.00 | 2.64 | 2.64 | 81 | 1015.8 |
| 20260903230338 | 78 | 84 | 0.0 | 0.0 | 0.00 | 2.64 | 2.64 | 81 | 1015.9 |
| 20260903230100 | 78 | 85 | 0.0 | 2.0 | 0.00 | 2.64 | 2.64 | 79 | 1015.9 |
| 20260903225339 | 78 | 85 | 0.0 | 2.0 | 0.00 | 2.64 | 2.64 | 78 | 1016.0 |
| 20260903224839 | 78 | 84 | 0.0 | 1.0 | 0.00 | 2.64 | 2.64 | 78 | 1016.0 |
| 20260903224335 | 79 | 85 | 0.0 | 1.0 | 0.00 | 2.64 | 2.64 | 77 | 1016.0 |
| 20260903223835 | 79 | 84 | 0.0 | 1.0 | 0.00 | 2.64 | 2.64 | 77 | 1016.1 |
| 20260903223336 | 79 | 84 | 0.0 | 1.0 | 0.00 | 2.64 | 2.64 | 77 | 1016.1 |
| 20260903222834 | 79 | 85 | 0.0 | 1.0 | 0.00 | 2.64 | 2.64 | 76 | 1015.9 |
| 20260903222335 | 79 | 85 | 0.0 | 3.0 | 0.00 | 2.64 | 2.64 | 76 | 1016.0 |
| 20260903221835 | 80 | 101 | 0.0 | 3.0 | 0.00 | 2.64 | 2.64 | 76 | 1015.9 |
| 20260903221334 | 80 | 99 | 0.0 | 3.0 | 0.00 | 2.64 | 2.64 | 76 | 1015.9 |
| 20260903220832 | 80 | 103 | 0.0 | 1.0 | 0.00 | 2.64 | 2.64 | 76 | 1016.0 |
| 20260903220332 | 80 | 103 | 0.0 | 1.0 | 0.00 | 2.64 | 2.64 | 76 | 1015.9 |
| 20260903215828 | 80 | 134 | 0.0 | 1.0 | 0.00 | 2.64 | 2.64 | 76 | 1016.0 |
| 20260903215327 | 80 | 134 | 0.0 | 1.0 | 0.00 | 2.64 | 2.64 | 75 | 1015.2 |
| 20260903214826 | 81 | 128 | 0.0 | 1.0 | 0.00 | 2.64 | 2.64 | 75 | 1015.4 |
| 20260903214323 | 81 | 132 | 0.0 | 1.0 | 0.00 | 2.64 | 2.64 | 75 | 1015.0 |
| 20260903213811 | 81 | 157 | 0.0 | 0.0 | 0.00 | 2.64 | 2.64 | 73 | 1014.9 |
| 20260903213305 | 82 | 157 | 0.0 | 4.0 | 0.00 | 2.64 | 2.64 | 73 | 1014.7 |
| 20260903212800 | 82 | 157 | 0.0 | 4.0 | 0.00 | 2.64 | 2.64 | 72 | 1014.7 |
| 20260903212253 | 82 | 125 | 0.0 | 1.0 | 0.00 | 2.64 | 2.64 | 72 | 1014.8 |
| 20260903211747 | 83 | 125 | 0.0 | 3.0 | 0.00 | 2.64 | 2.64 | 72 | 1015.0 |
| 20260903211242 | 83 | 178 | 0.0 | 3.0 | 0.00 | 2.64 | 2.64 | 71 | 1015.0 |
| 20260903210952 | 83 | 105 | 0.0 | 6.0 | 0.00 | 2.64 | 2.64 | 71 | 1014.9 |
| 20260903210229 | 83 | 161 | 1.0 | 6.0 | 0.00 | 2.64 | 2.64 | 71 | 1014.9 |
| 20260903205723 | 83 | 83 | 1.0 | 5.0 | 0.00 | 2.64 | 2.64 | 70 | 1014.9 |
| 20260903205218 | 84 | 238 | 0.0 | 7.0 | 0.00 | 2.64 | 2.64 | 69 | 1014.9 |
| 20260903204712 | 84 | 135 | 1.0 | 7.0 | 0.00 | 2.64 | 2.64 | 69 | 1014.9 |
| 20260903204205 | 84 | 88 | 1.0 | 8.0 | 0.00 | 2.64 | 2.64 | 69 | 1014.9 |
| 20260903203659 | 84 | 126 | 1.0 | 8.0 | 0.00 | 2.64 | 2.64 | 68 | 1014.9 |
| 20260903203153 | 84 | 112 | 1.0 | 5.0 | 0.00 | 2.64 | 2.64 | 68 | 1014.9 |
| 20260903202914 | 84 | 258 | 1.0 | 5.0 | 0.00 | 2.64 | 2.64 | 69 | 1014.7 |
| 20260903202141 | 84 | 80 | 1.0 | 8.0 | 0.00 | 2.64 | 2.64 | 69 | 1014.6 |
| 20260903201635 | 84 | 182 | 1.0 | 8.0 | 0.00 | 2.64 | 2.64 | 67 | 1014.7 |
| 20260903201129 | 85 | 77 | 1.0 | 7.0 | 0.00 | 2.64 | 2.64 | 67 | 1014.8 |
| 20260903200625 | 85 | 173 | 1.0 | 7.0 | 0.00 | 2.64 | 2.64 | 66 | 1014.9 |
| 20260903200117 | 85 | 59 | 0.0 | 5.0 | 0.00 | 2.64 | 2.64 | 67 | 1015.0 |
| 20260903195834 | 85 | 80 | 1.0 | 8.0 | 0.00 | 2.64 | 2.64 | 66 | 1015.0 |
| 20260903195105 | 85 | 72 | 1.0 | 8.0 | 0.00 | 2.64 | 2.64 | 65 | 1015.0 |
| 20260903194559 | 85 | 209 | 1.0 | 8.0 | 0.00 | 2.64 | 2.64 | 65 | 1015.2 |
| 20260903194314 | 85 | 173 | 1.0 | 8.0 | 0.00 | 2.64 | 2.64 | 64 | 1015.2 |
| 20260903193548 | 85 | 75 | 1.0 | 9.0 | 0.00 | 2.64 | 2.64 | 64 | 1015.3 |
| 20260903193041 | 85 | 115 | 1.0 | 9.0 | 0.00 | 2.64 | 2.64 | 64 | 1015.5 |
| 20260903192536 | 85 | 104 | 1.0 | 7.0 | 0.00 | 2.64 | 2.64 | 64 | 1015.5 |
| 20260903192029 | 85 | 194 | 1.0 | 8.0 | 0.00 | 2.64 | 2.64 | 62 | 1015.5 |
| 20260903191524 | 85 | 152 | 0.0 | 5.0 | 0.00 | 2.64 | 2.64 | 62 | 1015.7 |
| 20260903191237 | 85 | 119 | 0.0 | 3.0 | 0.00 | 2.64 | 2.64 | 66 | 1015.8 |
| 20260903190511 | 84 | 137 | 2.0 | 8.0 | 0.00 | 2.64 | 2.64 | 65 | 1015.8 |
| 20260903190008 | 84 | 82 | 2.0 | 8.0 | 0.00 | 2.64 | 2.64 | 64 | 1015.8 |
| 20260903185721 | 84 | 99 | 2.0 | 9.0 | 0.00 | 2.64 | 2.64 | 63 | 1015.8 |
| 20260903185211 | 84 | 200 | 2.0 | 9.0 | 0.00 | 2.64 | 2.64 | 62 | 1015.9 |
| 20260903184446 | 84 | 101 | 1.0 | 8.0 | 0.00 | 2.64 | 2.64 | 64 | 1015.9 |
| 20260903183943 | 84 | 98 | 1.0 | 5.0 | 0.00 | 2.64 | 2.64 | 64 | 1016.1 |
| 20260903183435 | 84 | 148 | 2.0 | 10.0 | 0.00 | 2.64 | 2.64 | 62 | 1016.0 |
| 20260903183150 | 84 | 80 | 2.0 | 10.0 | 0.00 | 2.64 | 2.64 | 64 | 1016.0 |
| 20260903182423 | 84 | 123 | 2.0 | 9.0 | 0.00 | 2.64 | 2.64 | 63 | 1016.1 |
| 20260903181917 | 84 | 191 | 1.0 | 7.0 | 0.00 | 2.64 | 2.64 | 61 | 1016.1 |
| 20260903181425 | 84 | 101 | 1.0 | 9.0 | 0.00 | 2.64 | 2.64 | 61 | 1016.2 |
| 20260903180905 | 84 | 113 | 2.0 | 9.0 | 0.00 | 2.64 | 2.64 | 61 | 1016.3 |
| 20260903180624 | 83 | 146 | 2.0 | 13.0 | 0.00 | 2.64 | 2.64 | 61 | 1016.4 |
| 20260903180333 | 83 | 47 | 3.0 | 13.0 | 0.00 | 2.64 | 2.64 | 63 | 1016.5 |
| 20260903175607 | 83 | 86 | 3.0 | 12.0 | 0.00 | 2.64 | 2.64 | 62 | 1016.5 |
| 20260903174841 | 83 | 139 | 2.0 | 9.0 | 0.00 | 2.64 | 2.64 | 63 | 1016.7 |
| 20260903174335 | 83 | 242 | 2.0 | 8.0 | 0.00 | 2.64 | 2.64 | 62 | 1016.6 |